owner,sensor,date,latitude,longitude,vertical_datum,sea_water_practical_salinity,qcFlag 
NERRS,ioos:station:NOAA.NERRS:marcewq:1,2019-08-01T00:15:00Z,28.1323,-97.0344,1.59,20.9,11111222 
NERRS,ioos:station:NOAA.NERRS:marcewq:1,2019-08-01T01:15:00Z,28.1323,-97.0344,1.57,21.0,11111222 
NERRS,ioos:station:NOAA.NERRS:marcewq:1,2019-08-01T02:15:00Z,28.1323,-97.0344,1.55,20.7,11111222 
NERRS,ioos:station:NOAA.NERRS:marcewq:1,2019-08-01T03:15:00Z,28.1323,-97.0344,1.53,20.1,11111222 
NERRS,ioos:station:NOAA.NERRS:marcewq:1,2019-08-01T04:15:00Z,28.1323,-97.0344,1.53,20.0,11111222 
NERRS,ioos:station:NOAA.NERRS:marcewq:1,2019-08-01T05:15:00Z,28.1323,-97.0344,1.51,19.9,11111222 
NERRS,ioos:station:NOAA.NERRS:marcewq:1,2019-08-01T06:15:00Z,28.1323,-97.0344,1.49,19.8,11111222 
NERRS,ioos:station:NOAA.NERRS:marcewq:1,2019-08-01T07:15:00Z,28.1323,-97.0344,1.49,19.7,11111222 
NERRS,ioos:station:NOAA.NERRS:marcewq:1,2019-08-01T08:15:00Z,28.1323,-97.0344,1.48,19.7,11111222 
NERRS,ioos:station:NOAA.NERRS:marcewq:1,2019-08-01T09:15:00Z,28.1323,-97.0344,1.48,19.9,11111222 
NERRS,ioos:station:NOAA.NERRS:marcewq:1,2019-08-01T10:15:00Z,28.1323,-97.0344,1.49,20.1,11111222 
NERRS,ioos:station:NOAA.NERRS:marcewq:1,2019-08-01T11:15:00Z,28.1323,-97.0344,1.5,20.0,11111222 
NERRS,ioos:station:NOAA.NERRS:marcewq:1,2019-08-01T12:15:00Z,28.1323,-97.0344,1.54,20.1,11111222 
NERRS,ioos:station:NOAA.NERRS:marcewq:1,2019-08-01T13:15:00Z,28.1323,-97.0344,1.53,20.3,11111222 
NERRS,ioos:station:NOAA.NERRS:marcewq:1,2019-08-01T14:15:00Z,28.1323,-97.0344,1.55,20.2,11111222 
NERRS,ioos:station:NOAA.NERRS:marcewq:1,2019-08-01T15:15:00Z,28.1323,-97.0344,1.58,20.5,11111222 
NERRS,ioos:station:NOAA.NERRS:marcewq:1,2019-08-01T16:15:00Z,28.1323,-97.0344,1.59,20.9,11111222 
NERRS,ioos:station:NOAA.NERRS:marcewq:1,2019-08-01T17:15:00Z,28.1323,-97.0344,1.6,21.3,11111222 
NERRS,ioos:station:NOAA.NERRS:marcewq:1,2019-08-01T18:15:00Z,28.1323,-97.0344,1.61,21.4,11111222 
NERRS,ioos:station:NOAA.NERRS:marcewq:1,2019-08-01T19:15:00Z,28.1323,-97.0344,1.61,21.3,11111222 
NERRS,ioos:station:NOAA.NERRS:marcewq:1,2019-08-01T20:15:00Z,28.1323,-97.0344,1.61,21.0,11111222 
NERRS,ioos:station:NOAA.NERRS:marcewq:1,2019-08-01T21:15:00Z,28.1323,-97.0344,1.62,21.3,11111222 
NERRS,ioos:station:NOAA.NERRS:marcewq:1,2019-08-01T22:15:00Z,28.1323,-97.0344,1.61,21.4,11111222 
NERRS,ioos:station:NOAA.NERRS:marcewq:1,2019-08-01T23:15:00Z,28.1323,-97.0344,1.6,21.5,11111222 
NERRS,ioos:station:NOAA.NERRS:marcewq:1,2019-08-02T00:15:00Z,28.1323,-97.0344,1.62,21.6,11111222 
NERRS,ioos:station:NOAA.NERRS:marcewq:1,2019-08-02T01:15:00Z,28.1323,-97.0344,1.61,21.5,11111222 
NERRS,ioos:station:NOAA.NERRS:marcewq:1,2019-08-02T02:15:00Z,28.1323,-97.0344,1.6,21.5,11111222 
NERRS,ioos:station:NOAA.NERRS:marcewq:1,2019-08-02T03:15:00Z,28.1323,-97.0344,1.58,21.1,11111222 
NERRS,ioos:station:NOAA.NERRS:marcewq:1,2019-08-02T04:15:00Z,28.1323,-97.0344,1.56,20.9,11111222 
NERRS,ioos:station:NOAA.NERRS:marcewq:1,2019-08-02T05:15:00Z,28.1323,-97.0344,1.55,20.5,11111222 
NERRS,ioos:station:NOAA.NERRS:marcewq:1,2019-08-02T06:15:00Z,28.1323,-97.0344,1.54,20.2,11111222 
NERRS,ioos:station:NOAA.NERRS:marcewq:1,2019-08-02T07:15:00Z,28.1323,-97.0344,1.52,20.1,11111222 
NERRS,ioos:station:NOAA.NERRS:marcewq:1,2019-08-02T08:15:00Z,28.1323,-97.0344,1.51,20.1,11111222 
NERRS,ioos:station:NOAA.NERRS:marcewq:1,2019-08-02T09:15:00Z,28.1323,-97.0344,1.5,20.0,11111222 
NERRS,ioos:station:NOAA.NERRS:marcewq:1,2019-08-02T10:15:00Z,28.1323,-97.0344,1.5,20.0,11111222 
NERRS,ioos:station:NOAA.NERRS:marcewq:1,2019-08-02T11:15:00Z,28.1323,-97.0344,1.52,20.1,11111222 
NERRS,ioos:station:NOAA.NERRS:marcewq:1,2019-08-02T12:15:00Z,28.1323,-97.0344,1.53,20.7,11111222 
NERRS,ioos:station:NOAA.NERRS:marcewq:1,2019-08-02T13:15:00Z,28.1323,-97.0344,1.55,20.5,11111222 
NERRS,ioos:station:NOAA.NERRS:marcewq:1,2019-08-02T14:15:00Z,28.1323,-97.0344,1.56,20.5,11111222 
NERRS,ioos:station:NOAA.NERRS:marcewq:1,2019-08-02T15:15:00Z,28.1323,-97.0344,1.58,6.7,11111222 
NERRS,ioos:station:NOAA.NERRS:marcewq:1,2019-08-02T16:15:00Z,28.1323,-97.0344,1.59,7.1,11111222 
NERRS,ioos:station:NOAA.NERRS:marcewq:1,2019-08-02T17:15:00Z,28.1323,-97.0344,1.59,21.0,11111222 
NERRS,ioos:station:NOAA.NERRS:marcewq:1,2019-08-02T18:15:00Z,28.1323,-97.0344,1.6,8.4,11111222 
NERRS,ioos:station:NOAA.NERRS:marcewq:1,2019-08-02T19:15:00Z,28.1323,-97.0344,1.6,7.4,11111222 
NERRS,ioos:station:NOAA.NERRS:marcewq:1,2019-08-02T20:15:00Z,28.1323,-97.0344,1.61,7.3,11111222 
NERRS,ioos:station:NOAA.NERRS:marcewq:1,2019-08-02T21:15:00Z,28.1323,-97.0344,1.61,21.6,11111222 
NERRS,ioos:station:NOAA.NERRS:marcewq:1,2019-08-02T22:15:00Z,28.1323,-97.0344,1.62,22.1,11111222 
NERRS,ioos:station:NOAA.NERRS:marcewq:1,2019-08-02T23:15:00Z,28.1323,-97.0344,1.63,7.4,11111222 
NERRS,ioos:station:NOAA.NERRS:marcewq:1,2019-08-03T00:15:00Z,28.1323,-97.0344,1.63,9.3,11111222 
NERRS,ioos:station:NOAA.NERRS:marcewq:1,2019-08-03T01:15:00Z,28.1323,-97.0344,1.62,10.4,11111222 
NERRS,ioos:station:NOAA.NERRS:marcewq:1,2019-08-03T02:15:00Z,28.1323,-97.0344,1.62,6.9,11111222 
NERRS,ioos:station:NOAA.NERRS:marcewq:1,2019-08-03T03:15:00Z,28.1323,-97.0344,1.61,9.8,11111222 
NERRS,ioos:station:NOAA.NERRS:marcewq:1,2019-08-03T04:15:00Z,28.1323,-97.0344,1.59,9.7,11111222 
NERRS,ioos:station:NOAA.NERRS:marcewq:1,2019-08-03T05:15:00Z,28.1323,-97.0344,1.58,9.1,11111222 
NERRS,ioos:station:NOAA.NERRS:marcewq:1,2019-08-03T06:15:00Z,28.1323,-97.0344,1.56,9.1,11111222 
NERRS,ioos:station:NOAA.NERRS:marcewq:1,2019-08-03T07:15:00Z,28.1323,-97.0344,1.53,9.4,11111222 
NERRS,ioos:station:NOAA.NERRS:marcewq:1,2019-08-03T08:15:00Z,28.1323,-97.0344,1.52,7.1,11111222 
NERRS,ioos:station:NOAA.NERRS:marcewq:1,2019-08-03T09:15:00Z,28.1323,-97.0344,1.51,6.8,11111222 
NERRS,ioos:station:NOAA.NERRS:marcewq:1,2019-08-03T10:15:00Z,28.1323,-97.0344,1.5,9.5,11111222 
NERRS,ioos:station:NOAA.NERRS:marcewq:1,2019-08-03T11:15:00Z,28.1323,-97.0344,1.51,7.5,11111222 
NERRS,ioos:station:NOAA.NERRS:marcewq:1,2019-08-03T12:15:00Z,28.1323,-97.0344,1.53,6.8,11111222 
NERRS,ioos:station:NOAA.NERRS:marcewq:1,2019-08-03T13:15:00Z,28.1323,-97.0344,1.55,7.7,11111222 
NERRS,ioos:station:NOAA.NERRS:marcewq:1,2019-08-03T14:15:00Z,28.1323,-97.0344,1.56,7.6,11111222 
NERRS,ioos:station:NOAA.NERRS:marcewq:1,2019-08-03T15:15:00Z,28.1323,-97.0344,1.57,9.1,11111222 
NERRS,ioos:station:NOAA.NERRS:marcewq:1,2019-08-03T16:15:00Z,28.1323,-97.0344,1.58,7.3,11111222 
NERRS,ioos:station:NOAA.NERRS:marcewq:1,2019-08-03T17:15:00Z,28.1323,-97.0344,1.58,11.3,11111222 
NERRS,ioos:station:NOAA.NERRS:marcewq:1,2019-08-03T18:15:00Z,28.1323,-97.0344,1.59,9.9,11111222 
NERRS,ioos:station:NOAA.NERRS:marcewq:1,2019-08-03T19:15:00Z,28.1323,-97.0344,1.58,10.5,11111222 
NERRS,ioos:station:NOAA.NERRS:marcewq:1,2019-08-03T20:15:00Z,28.1323,-97.0344,1.59,9.4,11111222 
NERRS,ioos:station:NOAA.NERRS:marcewq:1,2019-08-03T21:15:00Z,28.1323,-97.0344,1.6,9.2,11111222 
NERRS,ioos:station:NOAA.NERRS:marcewq:1,2019-08-03T22:15:00Z,28.1323,-97.0344,1.61,6.8,11111222 
NERRS,ioos:station:NOAA.NERRS:marcewq:1,2019-08-03T23:15:00Z,28.1323,-97.0344,1.61,10.6,11111222 
NERRS,ioos:station:NOAA.NERRS:marcewq:1,2019-08-04T00:15:00Z,28.1323,-97.0344,1.62,9.4,11111222 
NERRS,ioos:station:NOAA.NERRS:marcewq:1,2019-08-04T01:15:00Z,28.1323,-97.0344,1.62,10.9,11111222 
NERRS,ioos:station:NOAA.NERRS:marcewq:1,2019-08-04T02:15:00Z,28.1323,-97.0344,1.62,10.2,11111222 
NERRS,ioos:station:NOAA.NERRS:marcewq:1,2019-08-04T03:15:00Z,28.1323,-97.0344,1.62,9.0,11111222 
NERRS,ioos:station:NOAA.NERRS:marcewq:1,2019-08-04T04:15:00Z,28.1323,-97.0344,1.61,9.7,11111222 
NERRS,ioos:station:NOAA.NERRS:marcewq:1,2019-08-04T05:15:00Z,28.1323,-97.0344,1.6,7.6,11111222 
NERRS,ioos:station:NOAA.NERRS:marcewq:1,2019-08-04T06:15:00Z,28.1323,-97.0344,1.58,6.8,11111222 
NERRS,ioos:station:NOAA.NERRS:marcewq:1,2019-08-04T07:15:00Z,28.1323,-97.0344,1.56,6.4,11111222 
NERRS,ioos:station:NOAA.NERRS:marcewq:1,2019-08-04T08:15:00Z,28.1323,-97.0344,1.55,8.1,11111222 
NERRS,ioos:station:NOAA.NERRS:marcewq:1,2019-08-04T09:15:00Z,28.1323,-97.0344,1.54,8.6,11111222 
NERRS,ioos:station:NOAA.NERRS:marcewq:1,2019-08-04T10:15:00Z,28.1323,-97.0344,1.53,7.0,11111222 
NERRS,ioos:station:NOAA.NERRS:marcewq:1,2019-08-04T11:15:00Z,28.1323,-97.0344,1.53,7.7,11111222 
NERRS,ioos:station:NOAA.NERRS:marcewq:1,2019-08-04T12:15:00Z,28.1323,-97.0344,1.54,8.7,11111222 
NERRS,ioos:station:NOAA.NERRS:marcewq:1,2019-08-04T13:15:00Z,28.1323,-97.0344,1.55,8.2,11111222 
NERRS,ioos:station:NOAA.NERRS:marcewq:1,2019-08-04T14:15:00Z,28.1323,-97.0344,1.57,21.4,11111222 
NERRS,ioos:station:NOAA.NERRS:marcewq:1,2019-08-04T15:15:00Z,28.1323,-97.0344,1.58,8.3,11111222 
NERRS,ioos:station:NOAA.NERRS:marcewq:1,2019-08-04T16:15:00Z,28.1323,-97.0344,1.59,9.4,11111222 
NERRS,ioos:station:NOAA.NERRS:marcewq:1,2019-08-04T17:15:00Z,28.1323,-97.0344,1.59,7.3,11111222 
NERRS,ioos:station:NOAA.NERRS:marcewq:1,2019-08-04T18:15:00Z,28.1323,-97.0344,1.58,8.8,11111222 
NERRS,ioos:station:NOAA.NERRS:marcewq:1,2019-08-04T19:15:00Z,28.1323,-97.0344,1.57,8.3,11111222 
NERRS,ioos:station:NOAA.NERRS:marcewq:1,2019-08-04T20:15:00Z,28.1323,-97.0344,1.57,10.8,11111222 
NERRS,ioos:station:NOAA.NERRS:marcewq:1,2019-08-04T21:15:00Z,28.1323,-97.0344,1.57,6.9,11111222 
NERRS,ioos:station:NOAA.NERRS:marcewq:1,2019-08-04T22:15:00Z,28.1323,-97.0344,1.56,7.5,11111222 
NERRS,ioos:station:NOAA.NERRS:marcewq:1,2019-08-04T23:15:00Z,28.1323,-97.0344,1.57,6.8,11111222 
NERRS,ioos:station:NOAA.NERRS:marcewq:1,2019-08-05T00:15:00Z,28.1323,-97.0344,1.58,8.6,11111222 
NERRS,ioos:station:NOAA.NERRS:marcewq:1,2019-08-05T01:15:00Z,28.1323,-97.0344,1.57,6.7,11111222 
NERRS,ioos:station:NOAA.NERRS:marcewq:1,2019-08-05T02:15:00Z,28.1323,-97.0344,1.58,10.8,11111222 
NERRS,ioos:station:NOAA.NERRS:marcewq:1,2019-08-05T03:15:00Z,28.1323,-97.0344,1.59,8.8,11111222 
NERRS,ioos:station:NOAA.NERRS:marcewq:1,2019-08-05T04:15:00Z,28.1323,-97.0344,1.6,9.1,11111222 
NERRS,ioos:station:NOAA.NERRS:marcewq:1,2019-08-05T05:15:00Z,28.1323,-97.0344,1.6,8.7,11111222 
NERRS,ioos:station:NOAA.NERRS:marcewq:1,2019-08-05T06:15:00Z,28.1323,-97.0344,1.61,7.6,11111222 
NERRS,ioos:station:NOAA.NERRS:marcewq:1,2019-08-05T07:15:00Z,28.1323,-97.0344,1.59,8.8,11111222 
NERRS,ioos:station:NOAA.NERRS:marcewq:1,2019-08-05T08:15:00Z,28.1323,-97.0344,1.57,6.6,11111222 
NERRS,ioos:station:NOAA.NERRS:marcewq:1,2019-08-05T09:15:00Z,28.1323,-97.0344,1.56,9.4,11111222 
NERRS,ioos:station:NOAA.NERRS:marcewq:1,2019-08-05T10:15:00Z,28.1323,-97.0344,1.55,9.1,11111222 
NERRS,ioos:station:NOAA.NERRS:marcewq:1,2019-08-05T11:15:00Z,28.1323,-97.0344,1.54,11.0,11111222 
NERRS,ioos:station:NOAA.NERRS:marcewq:1,2019-08-05T12:15:00Z,28.1323,-97.0344,1.55,7.5,11111222 
NERRS,ioos:station:NOAA.NERRS:marcewq:1,2019-08-05T13:15:00Z,28.1323,-97.0344,1.55,9.0,11111222 
NERRS,ioos:station:NOAA.NERRS:marcewq:1,2019-08-05T14:15:00Z,28.1323,-97.0344,1.58,7.7,11111222 
NERRS,ioos:station:NOAA.NERRS:marcewq:1,2019-08-05T15:15:00Z,28.1323,-97.0344,1.57,12.1,11111222 
NERRS,ioos:station:NOAA.NERRS:marcewq:1,2019-08-05T16:15:00Z,28.1323,-97.0344,1.58,10.6,11111222 
NERRS,ioos:station:NOAA.NERRS:marcewq:1,2019-08-05T17:15:00Z,28.1323,-97.0344,1.58,12.4,11111222 
NERRS,ioos:station:NOAA.NERRS:marcewq:1,2019-08-05T18:15:00Z,28.1323,-97.0344,1.56,10.6,11111222 
NERRS,ioos:station:NOAA.NERRS:marcewq:1,2019-08-05T19:15:00Z,28.1323,-97.0344,1.56,10.4,11111222 
NERRS,ioos:station:NOAA.NERRS:marcewq:1,2019-08-05T20:15:00Z,28.1323,-97.0344,1.55,14.1,11111222 
NERRS,ioos:station:NOAA.NERRS:marcewq:1,2019-08-05T21:15:00Z,28.1323,-97.0344,1.54,10.6,11111222 
NERRS,ioos:station:NOAA.NERRS:marcewq:1,2019-08-05T22:15:00Z,28.1323,-97.0344,1.54,10.3,11111222 
NERRS,ioos:station:NOAA.NERRS:marcewq:1,2019-08-05T23:15:00Z,28.1323,-97.0344,1.53,11.1,11111222 
NERRS,ioos:station:NOAA.NERRS:marcewq:1,2019-08-06T00:15:00Z,28.1323,-97.0344,1.53,9.8,11111222 
NERRS,ioos:station:NOAA.NERRS:marcewq:1,2019-08-06T01:15:00Z,28.1323,-97.0344,1.54,20.8,11111222 
NERRS,ioos:station:NOAA.NERRS:marcewq:1,2019-08-06T02:15:00Z,28.1323,-97.0344,1.55,20.6,11111222 
NERRS,ioos:station:NOAA.NERRS:marcewq:1,2019-08-06T03:15:00Z,28.1323,-97.0344,1.56,20.6,11111222 
NERRS,ioos:station:NOAA.NERRS:marcewq:1,2019-08-06T04:15:00Z,28.1323,-97.0344,1.58,20.8,11111222 
NERRS,ioos:station:NOAA.NERRS:marcewq:1,2019-08-06T05:15:00Z,28.1323,-97.0344,1.59,21.0,11111222 
NERRS,ioos:station:NOAA.NERRS:marcewq:1,2019-08-06T06:15:00Z,28.1323,-97.0344,1.59,21.0,11111222 
NERRS,ioos:station:NOAA.NERRS:marcewq:1,2019-08-06T07:15:00Z,28.1323,-97.0344,1.59,21.0,11111222 
NERRS,ioos:station:NOAA.NERRS:marcewq:1,2019-08-06T08:15:00Z,28.1323,-97.0344,1.58,20.9,11111222 
NERRS,ioos:station:NOAA.NERRS:marcewq:1,2019-08-06T09:15:00Z,28.1323,-97.0344,1.57,21.1,11111222 
NERRS,ioos:station:NOAA.NERRS:marcewq:1,2019-08-06T10:15:00Z,28.1323,-97.0344,1.55,20.3,11111222 
NERRS,ioos:station:NOAA.NERRS:marcewq:1,2019-08-06T11:15:00Z,28.1323,-97.0344,1.55,20.6,11111222 
NERRS,ioos:station:NOAA.NERRS:marcewq:1,2019-08-06T12:15:00Z,28.1323,-97.0344,1.54,20.4,11111222 
NERRS,ioos:station:NOAA.NERRS:marcewq:1,2019-08-06T13:15:00Z,28.1323,-97.0344,1.55,20.7,11111222 
NERRS,ioos:station:NOAA.NERRS:marcewq:1,2019-08-06T14:15:00Z,28.1323,-97.0344,1.55,20.9,11111222 
NERRS,ioos:station:NOAA.NERRS:marcewq:1,2019-08-06T15:15:00Z,28.1323,-97.0344,1.56,21.3,11111222 
NERRS,ioos:station:NOAA.NERRS:marcewq:1,2019-08-06T16:15:00Z,28.1323,-97.0344,2.19,21.2,11111222 
NERRS,ioos:station:NOAA.NERRS:marcewq:1,2019-08-06T17:15:00Z,28.1323,-97.0344,2.19,21.2,11111222 
NERRS,ioos:station:NOAA.NERRS:marcewq:1,2019-08-06T18:15:00Z,28.1323,-97.0344,2.18,20.9,11111222 
NERRS,ioos:station:NOAA.NERRS:marcewq:1,2019-08-06T19:15:00Z,28.1323,-97.0344,2.17,20.6,11111222 
NERRS,ioos:station:NOAA.NERRS:marcewq:1,2019-08-06T20:15:00Z,28.1323,-97.0344,2.15,20.4,11111222 
NERRS,ioos:station:NOAA.NERRS:marcewq:1,2019-08-06T21:15:00Z,28.1323,-97.0344,2.14,20.3,11111222 
NERRS,ioos:station:NOAA.NERRS:marcewq:1,2019-08-06T22:15:00Z,28.1323,-97.0344,2.12,20.3,11111222 
NERRS,ioos:station:NOAA.NERRS:marcewq:1,2019-08-06T23:15:00Z,28.1323,-97.0344,2.12,20.3,11111222 
NERRS,ioos:station:NOAA.NERRS:marcewq:1,2019-08-07T00:15:00Z,28.1323,-97.0344,2.11,20.2,11111222 
NERRS,ioos:station:NOAA.NERRS:marcewq:1,2019-08-07T01:15:00Z,28.1323,-97.0344,2.12,20.2,11111222 
NERRS,ioos:station:NOAA.NERRS:marcewq:1,2019-08-07T02:15:00Z,28.1323,-97.0344,2.13,20.1,11111222 
NERRS,ioos:station:NOAA.NERRS:marcewq:1,2019-08-07T03:15:00Z,28.1323,-97.0344,2.15,20.0,11111222 
NERRS,ioos:station:NOAA.NERRS:marcewq:1,2019-08-07T04:15:00Z,28.1323,-97.0344,2.16,19.9,11111222 
NERRS,ioos:station:NOAA.NERRS:marcewq:1,2019-08-07T05:15:00Z,28.1323,-97.0344,2.18,20.7,11111222 
NERRS,ioos:station:NOAA.NERRS:marcewq:1,2019-08-07T06:15:00Z,28.1323,-97.0344,2.19,20.2,11111222 
NERRS,ioos:station:NOAA.NERRS:marcewq:1,2019-08-07T07:15:00Z,28.1323,-97.0344,2.2,20.6,11111222 
NERRS,ioos:station:NOAA.NERRS:marcewq:1,2019-08-07T08:15:00Z,28.1323,-97.0344,2.2,21.1,11111222 
NERRS,ioos:station:NOAA.NERRS:marcewq:1,2019-08-07T09:15:00Z,28.1323,-97.0344,2.2,21.3,11111222 
NERRS,ioos:station:NOAA.NERRS:marcewq:1,2019-08-07T10:15:00Z,28.1323,-97.0344,2.2,21.3,11111222 
NERRS,ioos:station:NOAA.NERRS:marcewq:1,2019-08-07T11:15:00Z,28.1323,-97.0344,2.19,21.3,11111222 
NERRS,ioos:station:NOAA.NERRS:marcewq:1,2019-08-07T12:15:00Z,28.1323,-97.0344,2.2,21.4,11111222 
NERRS,ioos:station:NOAA.NERRS:marcewq:1,2019-08-07T13:15:00Z,28.1323,-97.0344,2.2,21.5,11111222 
NERRS,ioos:station:NOAA.NERRS:marcewq:1,2019-08-07T14:15:00Z,28.1323,-97.0344,2.21,21.7,11111222 
NERRS,ioos:station:NOAA.NERRS:marcewq:1,2019-08-07T15:15:00Z,28.1323,-97.0344,2.22,21.1,11111222 
NERRS,ioos:station:NOAA.NERRS:marcewq:1,2019-08-07T16:15:00Z,28.1323,-97.0344,2.22,21.0,11111222 
NERRS,ioos:station:NOAA.NERRS:marcewq:1,2019-08-07T17:15:00Z,28.1323,-97.0344,2.21,21.0,11111222 
NERRS,ioos:station:NOAA.NERRS:marcewq:1,2019-08-07T18:15:00Z,28.1323,-97.0344,2.2,20.8,11111222 
NERRS,ioos:station:NOAA.NERRS:marcewq:1,2019-08-07T19:15:00Z,28.1323,-97.0344,2.19,20.4,11111222 
NERRS,ioos:station:NOAA.NERRS:marcewq:1,2019-08-07T20:15:00Z,28.1323,-97.0344,2.17,20.3,11111222 
NERRS,ioos:station:NOAA.NERRS:marcewq:1,2019-08-07T21:15:00Z,28.1323,-97.0344,2.15,20.3,11111222 
NERRS,ioos:station:NOAA.NERRS:marcewq:1,2019-08-07T22:15:00Z,28.1323,-97.0344,2.13,20.3,11111222 
NERRS,ioos:station:NOAA.NERRS:marcewq:1,2019-08-07T23:15:00Z,28.1323,-97.0344,2.12,20.3,11111222 
NERRS,ioos:station:NOAA.NERRS:marcewq:1,2019-08-08T00:15:00Z,28.1323,-97.0344,2.11,20.2,11111222 
NERRS,ioos:station:NOAA.NERRS:marcewq:1,2019-08-08T01:15:00Z,28.1323,-97.0344,2.09,20.6,11111222 
NERRS,ioos:station:NOAA.NERRS:marcewq:1,2019-08-08T02:15:00Z,28.1323,-97.0344,2.09,20.5,11111222 
NERRS,ioos:station:NOAA.NERRS:marcewq:1,2019-08-08T03:15:00Z,28.1323,-97.0344,2.09,20.7,11111222 
NERRS,ioos:station:NOAA.NERRS:marcewq:1,2019-08-08T04:15:00Z,28.1323,-97.0344,2.12,21.0,11111222 
NERRS,ioos:station:NOAA.NERRS:marcewq:1,2019-08-08T07:15:00Z,28.1323,-97.0344,2.17,20.9,11111222 
NERRS,ioos:station:NOAA.NERRS:marcewq:1,2019-08-08T08:15:00Z,28.1323,-97.0344,2.17,20.7,11111222 
NERRS,ioos:station:NOAA.NERRS:marcewq:1,2019-08-08T09:15:00Z,28.1323,-97.0344,2.17,20.9,11111222 
NERRS,ioos:station:NOAA.NERRS:marcewq:1,2019-08-08T10:15:00Z,28.1323,-97.0344,2.19,20.9,11111222 
NERRS,ioos:station:NOAA.NERRS:marcewq:1,2019-08-08T11:15:00Z,28.1323,-97.0344,2.19,21.0,11111222 
NERRS,ioos:station:NOAA.NERRS:marcewq:1,2019-08-08T12:15:00Z,28.1323,-97.0344,2.2,21.1,11111222 
NERRS,ioos:station:NOAA.NERRS:marcewq:1,2019-08-08T13:15:00Z,28.1323,-97.0344,2.21,21.2,11111222 
NERRS,ioos:station:NOAA.NERRS:marcewq:1,2019-08-08T14:15:00Z,28.1323,-97.0344,2.22,21.5,11111222 
NERRS,ioos:station:NOAA.NERRS:marcewq:1,2019-08-08T15:15:00Z,28.1323,-97.0344,2.23,21.6,11111222 
NERRS,ioos:station:NOAA.NERRS:marcewq:1,2019-08-08T16:15:00Z,28.1323,-97.0344,2.22,21.7,11111222 
NERRS,ioos:station:NOAA.NERRS:marcewq:1,2019-08-08T17:15:00Z,28.1323,-97.0344,2.22,21.6,11111222 
NERRS,ioos:station:NOAA.NERRS:marcewq:1,2019-08-08T18:15:00Z,28.1323,-97.0344,2.22,21.4,11111222 
NERRS,ioos:station:NOAA.NERRS:marcewq:1,2019-08-08T19:15:00Z,28.1323,-97.0344,2.2,21.3,11111222 
NERRS,ioos:station:NOAA.NERRS:marcewq:1,2019-08-08T20:15:00Z,28.1323,-97.0344,2.19,21.1,11111222 
NERRS,ioos:station:NOAA.NERRS:marcewq:1,2019-08-08T21:15:00Z,28.1323,-97.0344,2.18,21.2,11111222 
NERRS,ioos:station:NOAA.NERRS:marcewq:1,2019-08-08T22:15:00Z,28.1323,-97.0344,2.16,21.1,11111222 
NERRS,ioos:station:NOAA.NERRS:marcewq:1,2019-08-08T23:15:00Z,28.1323,-97.0344,2.14,20.8,11111222 
NERRS,ioos:station:NOAA.NERRS:marcewq:1,2019-08-09T00:15:00Z,28.1323,-97.0344,2.11,20.6,11111222 
NERRS,ioos:station:NOAA.NERRS:marcewq:1,2019-08-09T01:15:00Z,28.1323,-97.0344,2.11,21.0,11111222 
NERRS,ioos:station:NOAA.NERRS:marcewq:1,2019-08-09T02:15:00Z,28.1323,-97.0344,2.1,21.1,11111222 
NERRS,ioos:station:NOAA.NERRS:marcewq:1,2019-08-09T03:15:00Z,28.1323,-97.0344,2.1,21.2,11111222 
NERRS,ioos:station:NOAA.NERRS:marcewq:1,2019-08-09T04:15:00Z,28.1323,-97.0344,2.12,21.2,11111222 
NERRS,ioos:station:NOAA.NERRS:marcewq:1,2019-08-09T05:15:00Z,28.1323,-97.0344,2.13,21.2,11111222 
NERRS,ioos:station:NOAA.NERRS:marcewq:1,2019-08-09T06:15:00Z,28.1323,-97.0344,2.14,20.6,11111222 
NERRS,ioos:station:NOAA.NERRS:marcewq:1,2019-08-09T07:15:00Z,28.1323,-97.0344,2.15,20.0,11111222 
NERRS,ioos:station:NOAA.NERRS:marcewq:1,2019-08-09T08:15:00Z,28.1323,-97.0344,2.16,20.3,11111222 
NERRS,ioos:station:NOAA.NERRS:marcewq:1,2019-08-09T09:15:00Z,28.1323,-97.0344,2.16,21.1,11111222 
NERRS,ioos:station:NOAA.NERRS:marcewq:1,2019-08-09T10:15:00Z,28.1323,-97.0344,2.18,21.5,11111222 
NERRS,ioos:station:NOAA.NERRS:marcewq:1,2019-08-09T11:15:00Z,28.1323,-97.0344,2.18,21.6,11111222 
NERRS,ioos:station:NOAA.NERRS:marcewq:1,2019-08-09T12:15:00Z,28.1323,-97.0344,2.19,21.9,11111222 
NERRS,ioos:station:NOAA.NERRS:marcewq:1,2019-08-09T13:15:00Z,28.1323,-97.0344,2.2,22.2,11111222 
NERRS,ioos:station:NOAA.NERRS:marcewq:1,2019-08-09T14:15:00Z,28.1323,-97.0344,2.21,21.1,11111222 
NERRS,ioos:station:NOAA.NERRS:marcewq:1,2019-08-09T15:15:00Z,28.1323,-97.0344,2.22,21.0,11111222 
NERRS,ioos:station:NOAA.NERRS:marcewq:1,2019-08-09T16:15:00Z,28.1323,-97.0344,2.22,21.1,11111222 
NERRS,ioos:station:NOAA.NERRS:marcewq:1,2019-08-09T17:15:00Z,28.1323,-97.0344,2.22,21.0,11111222 
NERRS,ioos:station:NOAA.NERRS:marcewq:1,2019-08-09T18:15:00Z,28.1323,-97.0344,2.21,20.9,11111222 
NERRS,ioos:station:NOAA.NERRS:marcewq:1,2019-08-09T19:15:00Z,28.1323,-97.0344,2.19,21.0,11111222 
NERRS,ioos:station:NOAA.NERRS:marcewq:1,2019-08-09T20:15:00Z,28.1323,-97.0344,2.18,21.0,11111222 
NERRS,ioos:station:NOAA.NERRS:marcewq:1,2019-08-09T21:15:00Z,28.1323,-97.0344,2.16,20.9,11111222 
NERRS,ioos:station:NOAA.NERRS:marcewq:1,2019-08-09T22:15:00Z,28.1323,-97.0344,2.14,20.8,11111222 
NERRS,ioos:station:NOAA.NERRS:marcewq:1,2019-08-09T23:15:00Z,28.1323,-97.0344,2.12,20.6,11111222 
NERRS,ioos:station:NOAA.NERRS:marcewq:1,2019-08-10T00:15:00Z,28.1323,-97.0344,2.1,21.2,11111222 
NERRS,ioos:station:NOAA.NERRS:marcewq:1,2019-08-10T01:15:00Z,28.1323,-97.0344,2.09,21.2,11111222 
NERRS,ioos:station:NOAA.NERRS:marcewq:1,2019-08-10T02:15:00Z,28.1323,-97.0344,2.07,21.4,11111222 
NERRS,ioos:station:NOAA.NERRS:marcewq:1,2019-08-10T04:15:00Z,28.1323,-97.0344,2.06,21.4,11111222 
NERRS,ioos:station:NOAA.NERRS:marcewq:1,2019-08-10T05:15:00Z,28.1323,-97.0344,2.06,21.4,11111222 
NERRS,ioos:station:NOAA.NERRS:marcewq:1,2019-08-10T06:15:00Z,28.1323,-97.0344,2.07,21.6,11111222 
NERRS,ioos:station:NOAA.NERRS:marcewq:1,2019-08-10T07:15:00Z,28.1323,-97.0344,2.08,21.4,11111222 
NERRS,ioos:station:NOAA.NERRS:marcewq:1,2019-08-10T08:15:00Z,28.1323,-97.0344,2.09,21.2,11111222 
NERRS,ioos:station:NOAA.NERRS:marcewq:1,2019-08-10T09:15:00Z,28.1323,-97.0344,2.11,21.4,11111222 
NERRS,ioos:station:NOAA.NERRS:marcewq:1,2019-08-10T10:15:00Z,28.1323,-97.0344,2.12,21.6,11111222 
NERRS,ioos:station:NOAA.NERRS:marcewq:1,2019-08-10T11:15:00Z,28.1323,-97.0344,2.13,22.1,11111222 
NERRS,ioos:station:NOAA.NERRS:marcewq:1,2019-08-10T12:15:00Z,28.1323,-97.0344,2.14,22.2,11111222 
NERRS,ioos:station:NOAA.NERRS:marcewq:1,2019-08-10T13:15:00Z,28.1323,-97.0344,2.16,22.0,11111222 
NERRS,ioos:station:NOAA.NERRS:marcewq:1,2019-08-10T14:15:00Z,28.1323,-97.0344,2.17,21.9,11111222 
NERRS,ioos:station:NOAA.NERRS:marcewq:1,2019-08-10T15:15:00Z,28.1323,-97.0344,2.17,22.0,11111222 
NERRS,ioos:station:NOAA.NERRS:marcewq:1,2019-08-10T16:15:00Z,28.1323,-97.0344,2.18,21.9,11111222 
NERRS,ioos:station:NOAA.NERRS:marcewq:1,2019-08-10T17:15:00Z,28.1323,-97.0344,2.18,21.7,11111222 
NERRS,ioos:station:NOAA.NERRS:marcewq:1,2019-08-10T18:15:00Z,28.1323,-97.0344,2.18,21.6,11111222 
NERRS,ioos:station:NOAA.NERRS:marcewq:1,2019-08-10T19:15:00Z,28.1323,-97.0344,2.17,21.6,11111222 
NERRS,ioos:station:NOAA.NERRS:marcewq:1,2019-08-10T20:15:00Z,28.1323,-97.0344,2.15,21.5,11111222 
NERRS,ioos:station:NOAA.NERRS:marcewq:1,2019-08-10T21:15:00Z,28.1323,-97.0344,2.13,21.8,11111222 
NERRS,ioos:station:NOAA.NERRS:marcewq:1,2019-08-10T22:15:00Z,28.1323,-97.0344,2.11,21.7,11111222 
NERRS,ioos:station:NOAA.NERRS:marcewq:1,2019-08-10T23:15:00Z,28.1323,-97.0344,2.09,21.3,11111222 
NERRS,ioos:station:NOAA.NERRS:marcewq:1,2019-08-11T00:15:00Z,28.1323,-97.0344,2.07,21.1,11111222 
NERRS,ioos:station:NOAA.NERRS:marcewq:1,2019-08-11T01:15:00Z,28.1323,-97.0344,2.07,21.0,11111222 
NERRS,ioos:station:NOAA.NERRS:marcewq:1,2019-08-11T02:15:00Z,28.1323,-97.0344,2.05,21.0,11111222 
NERRS,ioos:station:NOAA.NERRS:marcewq:1,2019-08-11T03:15:00Z,28.1323,-97.0344,2.06,21.1,11111222 
NERRS,ioos:station:NOAA.NERRS:marcewq:1,2019-08-11T04:15:00Z,28.1323,-97.0344,2.05,21.2,11111222 
NERRS,ioos:station:NOAA.NERRS:marcewq:1,2019-08-11T05:15:00Z,28.1323,-97.0344,2.05,21.5,11111222 
NERRS,ioos:station:NOAA.NERRS:marcewq:1,2019-08-11T06:15:00Z,28.1323,-97.0344,2.05,21.6,11111222 